Year,Month,Day,Hour,Minute,Value (Times are PST for temperature in C)
2011,01,31,00,00,-2.60
2011,01,31,00,01,-2.60
2011,01,31,00,02,-2.60
2011,01,31,00,03,-2.60
2011,01,31,00,04,-2.60
2011,01,31,00,05,-2.60
2011,01,31,00,06,-2.70
2011,01,31,00,07,-2.70
2011,01,31,00,08,-2.70
2011,01,31,00,09,-2.70
2011,01,31,00,10,-2.70
2011,01,31,00,11,-2.70
2011,01,31,00,12,-2.60
2011,01,31,00,13,-2.60
2011,01,31,00,14,-2.60
2011,01,31,00,15,-2.60
2011,01,31,00,16,-2.60
2011,01,31,00,17,-2.60
2011,01,31,00,18,-2.60
2011,01,31,00,19,-2.60
2011,01,31,00,20,-2.60
2011,01,31,00,21,-2.60
2011,01,31,00,22,-2.70
2011,01,31,00,23,-2.70
2011,01,31,00,24,-2.70
2011,01,31,00,25,-2.70
2011,01,31,00,26,-2.70
2011,01,31,00,27,-2.70
2011,01,31,00,28,-2.70
2011,01,31,00,29,-2.70
2011,01,31,00,30,-2.70
2011,01,31,00,31,-2.70
2011,01,31,00,32,-2.70
2011,01,31,00,33,-2.70
2011,01,31,00,34,-2.70
2011,01,31,00,35,-2.70
2011,01,31,00,36,-2.80
2011,01,31,00,37,-2.80
2011,01,31,00,38,-2.80
2011,01,31,00,39,-2.80
2011,01,31,00,40,-2.80
2011,01,31,00,41,-2.80
2011,01,31,00,42,-2.80
2011,01,31,00,43,-2.80
2011,01,31,00,44,-2.80
2011,01,31,00,45,-2.80
2011,01,31,00,46,-2.90
2011,01,31,00,47,-2.90
2011,01,31,00,48,-2.90
2011,01,31,00,49,-2.90
2011,01,31,00,50,-2.90
2011,01,31,00,51,-2.90
2011,01,31,00,52,-2.90
2011,01,31,00,53,-2.90
2011,01,31,00,54,-2.90
2011,01,31,00,55,-2.90
2011,01,31,00,56,-2.90
2011,01,31,00,57,-2.90
2011,01,31,00,58,-2.90
2011,01,31,00,59,-2.80
2011,01,31,01,00,-2.80
2011,01,31,01,01,-2.80
2011,01,31,01,02,-2.80
2011,01,31,01,03,-2.80
2011,01,31,01,04,-2.70
2011,01,31,01,05,-2.70
2011,01,31,01,06,-2.70
2011,01,31,01,07,-2.70
2011,01,31,01,08,-2.70
2011,01,31,01,09,-2.70
2011,01,31,01,10,-2.70
2011,01,31,01,11,-2.70
2011,01,31,01,12,-2.70
2011,01,31,01,13,-2.70
2011,01,31,01,14,-2.70
2011,01,31,01,15,-2.70
2011,01,31,01,16,-2.70
2011,01,31,01,17,-2.70
2011,01,31,01,18,-2.70
2011,01,31,01,19,-2.70
2011,01,31,01,20,-2.70
2011,01,31,01,21,-2.70
2011,01,31,01,22,-2.70
2011,01,31,01,23,-2.70
2011,01,31,01,24,-2.60
2011,01,31,01,25,-2.60
2011,01,31,01,26,-2.60
2011,01,31,01,27,-2.60
2011,01,31,01,28,-2.60
2011,01,31,01,29,-2.60
2011,01,31,01,30,-2.60
2011,01,31,01,31,-2.60
2011,01,31,01,32,-2.70
2011,01,31,01,33,-2.70
2011,01,31,01,34,-2.70
2011,01,31,01,35,-2.70
2011,01,31,01,36,-2.70
2011,01,31,01,37,-2.70
2011,01,31,01,38,-2.70
2011,01,31,01,39,-2.70
2011,01,31,01,40,-2.70
2011,01,31,01,41,-2.70
2011,01,31,01,42,-2.70
2011,01,31,01,43,-2.70
2011,01,31,01,44,-2.70
2011,01,31,01,45,-2.70
2011,01,31,01,46,-2.70
2011,01,31,01,47,-2.70
2011,01,31,01,48,-2.80
2011,01,31,01,49,-2.80
2011,01,31,01,50,-2.70
2011,01,31,01,51,-2.80
2011,01,31,01,52,-2.80
2011,01,31,01,53,-2.80
2011,01,31,01,54,-2.80
2011,01,31,01,55,-2.80
2011,01,31,01,56,-2.80
2011,01,31,01,57,-2.80
2011,01,31,01,58,-2.80
2011,01,31,01,59,-2.80
2011,01,31,02,00,-2.80
2011,01,31,02,01,-2.80
2011,01,31,02,02,-2.80
2011,01,31,02,03,-2.80
2011,01,31,02,04,-2.80
2011,01,31,02,05,-2.80
2011,01,31,02,06,-2.80
2011,01,31,02,07,-2.80
2011,01,31,02,08,-2.80
2011,01,31,02,09,-2.80
2011,01,31,02,10,-2.80
2011,01,31,02,11,-2.80
2011,01,31,02,12,-2.80
2011,01,31,02,13,-2.90
2011,01,31,02,14,-2.90
2011,01,31,02,15,-2.90
2011,01,31,02,16,-2.90
2011,01,31,02,17,-2.90
2011,01,31,02,18,-2.80
2011,01,31,02,19,-2.80
2011,01,31,02,20,-2.80
2011,01,31,02,21,-2.80
2011,01,31,02,22,-2.80
2011,01,31,02,23,-2.80
2011,01,31,02,24,-2.80
2011,01,31,02,25,-2.90
2011,01,31,02,26,-2.80
2011,01,31,02,27,-2.90
2011,01,31,02,28,-2.80
2011,01,31,02,29,-2.80
2011,01,31,02,30,-2.80
2011,01,31,02,31,-2.80
2011,01,31,02,32,-2.80
2011,01,31,02,33,-2.80
2011,01,31,02,34,-2.80
2011,01,31,02,35,-2.80
2011,01,31,02,36,-2.90
2011,01,31,02,37,-2.90
2011,01,31,02,38,-2.90
2011,01,31,02,39,-2.90
2011,01,31,02,40,-2.90
2011,01,31,02,41,-2.90
2011,01,31,02,42,-2.90
2011,01,31,02,43,-2.90
2011,01,31,02,44,-2.90
2011,01,31,02,45,-2.90
2011,01,31,02,46,-2.90
2011,01,31,02,47,-2.90
2011,01,31,02,48,-2.90
2011,01,31,02,49,-2.90
2011,01,31,02,50,-2.90
2011,01,31,02,51,-2.90
2011,01,31,02,52,-2.90
2011,01,31,02,53,-2.90
2011,01,31,02,54,-2.90
2011,01,31,02,55,-2.90
2011,01,31,02,56,-2.90
2011,01,31,02,57,-2.90
2011,01,31,02,58,-2.90
2011,01,31,02,59,-2.90
2011,01,31,03,00,-2.90
2011,01,31,03,01,-2.80
2011,01,31,03,02,-2.80
2011,01,31,03,03,-2.80
2011,01,31,03,04,-2.80
2011,01,31,03,05,-2.80
2011,01,31,03,06,-2.80
2011,01,31,03,07,-2.80
2011,01,31,03,08,-2.80
2011,01,31,03,09,-2.70
2011,01,31,03,10,-2.70
2011,01,31,03,11,-2.70
2011,01,31,03,12,-2.70
2011,01,31,03,13,-2.70
2011,01,31,03,14,-2.70
2011,01,31,03,15,-2.70
2011,01,31,03,16,-2.70
2011,01,31,03,17,-2.70
2011,01,31,03,18,-2.70
2011,01,31,03,19,-2.60
2011,01,31,03,20,-2.60
2011,01,31,03,21,-2.60
2011,01,31,03,22,-2.60
2011,01,31,03,23,-2.60
2011,01,31,03,24,-2.60
2011,01,31,03,25,-2.50
2011,01,31,03,26,-2.50
2011,01,31,03,27,-2.50
2011,01,31,03,28,-2.50
2011,01,31,03,29,-2.40
2011,01,31,03,30,-2.40
2011,01,31,03,31,-2.40
2011,01,31,03,32,-2.40
2011,01,31,03,33,-2.40
2011,01,31,03,34,-2.40
2011,01,31,03,35,-2.40
2011,01,31,03,36,-2.40
2011,01,31,03,37,-2.40
2011,01,31,03,38,-2.40
2011,01,31,03,39,-2.40
2011,01,31,03,40,-2.40
2011,01,31,03,41,-2.40
2011,01,31,03,42,-2.40
2011,01,31,03,43,-2.40
2011,01,31,03,44,-2.40
2011,01,31,03,45,-2.50
2011,01,31,03,46,-2.50
2011,01,31,03,47,-2.50
2011,01,31,03,48,-2.50
2011,01,31,03,49,-2.50
2011,01,31,03,50,-2.50
2011,01,31,03,51,-2.40
2011,01,31,03,52,-2.40
2011,01,31,03,53,-2.40
2011,01,31,03,54,-2.40
2011,01,31,03,55,-2.40
2011,01,31,03,56,-2.40
2011,01,31,03,57,-2.40
2011,01,31,03,58,-2.40
2011,01,31,03,59,-2.40
2011,01,31,04,00,-2.40
2011,01,31,04,01,-2.40
2011,01,31,04,02,-2.40
2011,01,31,04,03,-2.40
2011,01,31,04,04,-2.40
2011,01,31,04,05,-2.40
2011,01,31,04,06,-2.40
2011,01,31,04,07,-2.40
2011,01,31,04,08,-2.40
2011,01,31,04,09,-2.40
2011,01,31,04,10,-2.40
2011,01,31,04,11,-2.40
2011,01,31,04,12,-2.40
2011,01,31,04,13,-2.40
2011,01,31,04,14,-2.40
2011,01,31,04,15,-2.40
2011,01,31,04,16,-2.40
2011,01,31,04,17,-2.40
2011,01,31,04,18,-2.40
2011,01,31,04,19,-2.40
2011,01,31,04,20,-2.40
2011,01,31,04,21,-2.40
2011,01,31,04,22,-2.40
2011,01,31,04,23,-2.40
2011,01,31,04,24,-2.40
2011,01,31,04,25,-2.40
2011,01,31,04,26,-2.40
2011,01,31,04,27,-2.40
2011,01,31,04,28,-2.40
2011,01,31,04,29,-2.40
2011,01,31,04,30,-2.40
2011,01,31,04,31,-2.40
2011,01,31,04,32,-2.40
2011,01,31,04,33,-2.40
2011,01,31,04,34,-2.40
2011,01,31,04,35,-2.40
2011,01,31,04,36,-2.40
2011,01,31,04,37,-2.40
2011,01,31,04,38,-2.40
2011,01,31,04,39,-2.40
2011,01,31,04,40,-2.40
2011,01,31,04,41,-2.40
2011,01,31,04,42,-2.40
2011,01,31,04,43,-2.40
2011,01,31,04,44,-2.40
2011,01,31,04,45,-2.40
2011,01,31,04,46,-2.40
2011,01,31,04,47,-2.40
2011,01,31,04,48,-2.40
2011,01,31,04,49,-2.40
2011,01,31,04,50,-2.40
2011,01,31,04,51,-2.40
2011,01,31,04,52,-2.40
2011,01,31,04,53,-2.40
2011,01,31,04,54,-2.40
2011,01,31,04,55,-2.40
2011,01,31,04,56,-2.40
2011,01,31,04,57,-2.40
2011,01,31,04,58,-2.40
2011,01,31,04,59,-2.40
2011,01,31,05,00,-2.40
2011,01,31,05,01,-2.40
2011,01,31,05,02,-2.40
2011,01,31,05,03,-2.40
2011,01,31,05,04,-2.40
2011,01,31,05,05,-2.40
2011,01,31,05,06,-2.40
2011,01,31,05,07,-2.40
2011,01,31,05,08,-2.40
2011,01,31,05,09,-2.40
2011,01,31,05,10,-2.40
2011,01,31,05,11,-2.40
2011,01,31,05,12,-2.40
2011,01,31,05,13,-2.40
2011,01,31,05,14,-2.40
2011,01,31,05,15,-2.40
2011,01,31,05,16,-2.40
2011,01,31,05,17,-2.40
2011,01,31,05,18,-2.40
2011,01,31,05,19,-2.40
2011,01,31,05,20,-2.40
2011,01,31,05,21,-2.40
2011,01,31,05,22,-2.40
2011,01,31,05,23,-2.40
2011,01,31,05,24,-2.40
2011,01,31,05,25,-2.40
2011,01,31,05,26,-2.40
2011,01,31,05,27,-2.40
2011,01,31,05,28,-2.40
2011,01,31,05,29,-2.40
2011,01,31,05,30,-2.40
2011,01,31,05,31,-2.40
2011,01,31,05,32,-2.50
2011,01,31,05,33,-2.40
2011,01,31,05,34,-2.40
2011,01,31,05,35,-2.50
2011,01,31,05,36,-2.50
2011,01,31,05,37,-2.50
2011,01,31,05,38,-2.50
2011,01,31,05,39,-2.50
2011,01,31,05,40,-2.50
2011,01,31,05,41,-2.50
2011,01,31,05,42,-2.50
2011,01,31,05,43,-2.50
2011,01,31,05,44,-2.50
2011,01,31,05,45,-2.50
2011,01,31,05,46,-2.50
2011,01,31,05,47,-2.50
2011,01,31,05,48,-2.50
2011,01,31,05,49,-2.50
2011,01,31,05,50,-2.50
2011,01,31,05,51,-2.50
2011,01,31,05,52,-2.50
2011,01,31,05,53,-2.50
2011,01,31,05,54,-2.50
2011,01,31,05,55,-2.50
2011,01,31,05,56,-2.50
2011,01,31,05,57,-2.50
2011,01,31,05,58,-2.50
2011,01,31,05,59,-2.50
2011,01,31,06,00,-2.50
2011,01,31,06,01,-2.50
2011,01,31,06,02,-2.50
2011,01,31,06,03,-2.50
2011,01,31,06,04,-2.40
2011,01,31,06,05,-2.40
2011,01,31,06,06,-2.40
2011,01,31,06,07,-2.40
2011,01,31,06,08,-2.40
2011,01,31,06,09,-2.40
2011,01,31,06,10,-2.40
2011,01,31,06,11,-2.40
2011,01,31,06,12,-2.40
2011,01,31,06,13,-2.40
2011,01,31,06,14,-2.40
2011,01,31,06,15,-2.40
2011,01,31,06,16,-2.40
2011,01,31,06,17,-2.40
2011,01,31,06,18,-2.40
2011,01,31,06,19,-2.40
2011,01,31,06,20,-2.40
2011,01,31,06,21,-2.40
2011,01,31,06,22,-2.40
2011,01,31,06,23,-2.40
2011,01,31,06,24,-2.40
2011,01,31,06,25,-2.40
2011,01,31,06,26,-2.40
2011,01,31,06,27,-2.40
2011,01,31,06,28,-2.40
2011,01,31,06,29,-2.40
2011,01,31,06,30,-2.40
2011,01,31,06,31,-2.40
2011,01,31,06,32,-2.40
2011,01,31,06,33,-2.40
2011,01,31,06,34,-2.40
2011,01,31,06,35,-2.40
2011,01,31,06,36,-2.40
2011,01,31,06,37,-2.40
2011,01,31,06,38,-2.40
2011,01,31,06,39,-2.40
2011,01,31,06,40,-2.40
2011,01,31,06,41,-2.40
2011,01,31,06,42,-2.40
2011,01,31,06,43,-2.40
2011,01,31,06,44,-2.40
2011,01,31,06,45,-2.40
2011,01,31,06,46,-2.40
2011,01,31,06,47,-2.40
2011,01,31,06,48,-2.40
2011,01,31,06,49,-2.40
2011,01,31,06,50,-2.40
2011,01,31,06,51,-2.40
2011,01,31,06,52,-2.40
2011,01,31,06,53,-2.40
2011,01,31,06,54,-2.40
2011,01,31,06,55,-2.40
2011,01,31,06,56,-2.40
2011,01,31,06,57,-2.40
2011,01,31,06,58,-2.40
2011,01,31,06,59,-2.40
2011,01,31,07,00,-2.40
2011,01,31,07,01,-2.40
2011,01,31,07,02,-2.40
2011,01,31,07,03,-2.40
2011,01,31,07,04,-2.40
2011,01,31,07,05,-2.40
2011,01,31,07,06,-2.40
2011,01,31,07,07,-2.40
2011,01,31,07,08,-2.40
2011,01,31,07,09,-2.40
2011,01,31,07,10,-2.30
2011,01,31,07,11,-2.30
2011,01,31,07,12,-2.30
2011,01,31,07,13,-2.40
2011,01,31,07,14,-2.30
2011,01,31,07,15,-2.40
2011,01,31,07,16,-2.40
2011,01,31,07,17,-2.40
2011,01,31,07,18,-2.40
2011,01,31,07,19,-2.30
2011,01,31,07,20,-2.30
2011,01,31,07,21,-2.30
2011,01,31,07,22,-2.30
2011,01,31,07,23,-2.30
2011,01,31,07,24,-2.30
2011,01,31,07,25,-2.30
2011,01,31,07,26,-2.30
2011,01,31,07,27,-2.30
2011,01,31,07,28,-2.30
2011,01,31,07,29,-2.30
2011,01,31,07,30,-2.30
2011,01,31,07,31,-2.30
2011,01,31,07,32,-2.30
2011,01,31,07,33,-2.30
2011,01,31,07,34,-2.30
2011,01,31,07,35,-2.30
2011,01,31,07,36,-2.30
2011,01,31,07,37,-2.30
2011,01,31,07,38,-2.30
2011,01,31,07,39,-2.30
2011,01,31,07,40,-2.30
2011,01,31,07,41,-2.30
2011,01,31,07,42,-2.30
2011,01,31,07,43,-2.30
2011,01,31,07,44,-2.30
2011,01,31,07,45,-2.30
2011,01,31,07,46,-2.30
2011,01,31,07,47,-2.30
2011,01,31,07,48,-2.30
2011,01,31,07,49,-2.30
2011,01,31,07,50,-2.30
2011,01,31,07,51,-2.30
2011,01,31,07,52,-2.30
2011,01,31,07,53,-2.30
2011,01,31,07,54,-2.30
2011,01,31,07,55,-2.30
2011,01,31,07,56,-2.30
2011,01,31,07,57,-2.20
2011,01,31,07,58,-2.20
2011,01,31,07,59,-2.20
2011,01,31,08,00,-2.20
2011,01,31,08,01,-2.20
2011,01,31,08,02,-2.20
2011,01,31,08,03,-2.20
2011,01,31,08,04,-2.20
2011,01,31,08,05,-2.20
2011,01,31,08,06,-2.20
2011,01,31,08,07,-2.20
2011,01,31,08,08,-2.20
2011,01,31,08,09,-2.20
2011,01,31,08,10,-2.20
2011,01,31,08,11,-2.20
2011,01,31,08,12,-2.20
2011,01,31,08,13,-2.20
2011,01,31,08,14,-2.20
2011,01,31,08,15,-2.20
2011,01,31,08,16,-2.20
2011,01,31,08,17,-2.20
2011,01,31,08,18,-2.20
2011,01,31,08,19,-2.20
2011,01,31,08,20,-2.20
2011,01,31,08,21,-2.20
2011,01,31,08,22,-2.20
2011,01,31,08,23,-2.20
2011,01,31,08,24,-2.10
2011,01,31,08,25,-2.10
2011,01,31,08,26,-2.10
2011,01,31,08,27,-2.10
2011,01,31,08,28,-2.10
2011,01,31,08,29,-2.10
2011,01,31,08,30,-2.10
2011,01,31,08,31,-2.10
2011,01,31,08,32,-2.10
2011,01,31,08,33,-2.10
2011,01,31,08,34,-2.10
2011,01,31,08,35,-2.10
2011,01,31,08,36,-2.10
2011,01,31,08,37,-2.10
2011,01,31,08,38,-2.10
2011,01,31,08,39,-2.10
2011,01,31,08,40,-2.10
2011,01,31,08,41,-2.10
2011,01,31,08,42,-2.10
2011,01,31,08,43,-2.00
2011,01,31,08,44,-2.00
2011,01,31,08,45,-2.00
2011,01,31,08,46,-2.00
2011,01,31,08,47,-2.00
2011,01,31,08,48,-1.90
2011,01,31,08,49,-1.90
2011,01,31,08,50,-1.90
2011,01,31,08,51,-1.90
2011,01,31,08,52,-1.90
2011,01,31,08,53,-1.90
2011,01,31,08,54,-1.90
2011,01,31,08,55,-1.90
2011,01,31,08,56,-1.90
2011,01,31,08,57,-1.90
2011,01,31,08,58,-1.90
2011,01,31,08,59,-1.80
2011,01,31,09,00,-1.80
2011,01,31,09,01,-1.80
2011,01,31,09,02,-1.80
2011,01,31,09,03,-1.80
2011,01,31,09,04,-1.80
2011,01,31,09,05,-1.80
2011,01,31,09,06,-1.80
2011,01,31,09,07,-1.80
2011,01,31,09,08,-1.80
2011,01,31,09,09,-1.80
2011,01,31,09,10,-1.80
2011,01,31,09,11,-1.70
2011,01,31,09,12,-1.70
2011,01,31,09,13,-1.70
2011,01,31,09,14,-1.70
2011,01,31,09,15,-1.70
2011,01,31,09,16,-1.70
2011,01,31,09,17,-1.70
2011,01,31,09,18,-1.70
2011,01,31,09,19,-1.70
2011,01,31,09,20,-1.60
2011,01,31,09,21,-1.60
2011,01,31,09,22,-1.60
2011,01,31,09,23,-1.60
2011,01,31,09,24,-1.60
2011,01,31,09,25,-1.60
2011,01,31,09,26,-1.60
2011,01,31,09,27,-1.60
2011,01,31,09,28,-1.60
2011,01,31,09,29,-1.60
2011,01,31,09,30,-1.60
2011,01,31,09,31,-1.60
2011,01,31,09,32,-1.50
2011,01,31,09,33,-1.50
2011,01,31,09,34,-1.50
2011,01,31,09,35,-1.50
2011,01,31,09,36,-1.40
2011,01,31,09,37,-1.40
2011,01,31,09,38,-1.40
2011,01,31,09,39,-1.40
2011,01,31,09,40,-1.40
2011,01,31,09,41,-1.40
2011,01,31,09,42,-1.40
2011,01,31,09,43,-1.30
2011,01,31,09,44,-1.30
2011,01,31,09,45,-1.30
2011,01,31,09,46,-1.30
2011,01,31,09,47,-1.30
2011,01,31,09,48,-1.20
2011,01,31,09,49,-1.20
2011,01,31,09,50,-1.20
2011,01,31,09,51,-1.20
2011,01,31,09,52,-1.20
2011,01,31,09,53,-1.20
2011,01,31,09,54,-1.20
2011,01,31,09,55,-1.10
2011,01,31,09,56,-1.10
2011,01,31,09,57,-1.10
2011,01,31,09,58,-1.10
2011,01,31,09,59,-1.10
2011,01,31,10,00,-1.10
2011,01,31,10,01,-1.10
2011,01,31,10,02,-1.00
2011,01,31,10,03,-1.00
2011,01,31,10,04,-1.00
2011,01,31,10,05,-0.90
2011,01,31,10,06,-0.90
2011,01,31,10,07,-0.90
2011,01,31,10,08,-0.90
2011,01,31,10,09,-0.90
2011,01,31,10,10,-0.90
2011,01,31,10,11,-0.90
2011,01,31,10,12,-0.80
2011,01,31,10,13,-0.80
2011,01,31,10,14,-0.80
2011,01,31,10,15,-0.80
2011,01,31,10,16,-0.80
2011,01,31,10,17,-0.70
2011,01,31,10,18,-0.70
2011,01,31,10,19,-0.70
2011,01,31,10,20,-0.70
2011,01,31,10,21,-0.60
2011,01,31,10,22,-0.60
2011,01,31,10,23,-0.60
2011,01,31,10,24,-0.60
2011,01,31,10,25,-0.60
2011,01,31,10,26,-0.60
2011,01,31,10,27,-0.50
2011,01,31,10,28,-0.50
2011,01,31,10,29,-0.50
2011,01,31,10,30,-0.50
2011,01,31,10,31,-0.50
2011,01,31,10,32,-0.40
2011,01,31,15,27,3.80
2011,01,31,15,28,3.80
2011,01,31,15,29,3.80
2011,01,31,15,30,3.80
2011,01,31,15,31,3.80
2011,01,31,15,32,3.70
2011,01,31,15,33,3.70
2011,01,31,15,34,3.70
2011,01,31,15,35,3.70
2011,01,31,15,36,3.70
2011,01,31,15,37,3.70
2011,01,31,15,38,3.70
2011,01,31,15,39,3.60
2011,01,31,15,40,3.60
2011,01,31,15,41,3.60
2011,01,31,15,42,3.50
2011,01,31,15,43,3.50
2011,01,31,15,44,3.40
2011,01,31,15,45,3.40
2011,01,31,15,46,3.30
2011,01,31,15,47,3.30
2011,01,31,15,48,3.30
2011,01,31,15,49,3.30
2011,01,31,15,50,3.30
2011,01,31,15,51,3.20
2011,01,31,15,52,3.20
2011,01,31,15,53,3.10
2011,01,31,15,54,3.10
2011,01,31,15,55,3.10
2011,01,31,15,56,3.00
2011,01,31,15,57,3.00
2011,01,31,15,58,2.90
2011,01,31,15,59,2.90
2011,01,31,16,00,2.80
2011,01,31,16,01,2.80
2011,01,31,16,02,2.80
2011,01,31,16,03,2.70
2011,01,31,16,04,2.70
2011,01,31,16,05,2.70
2011,01,31,16,06,2.60
2011,01,31,16,07,2.60
2011,01,31,16,08,2.60
2011,01,31,16,09,2.60
2011,01,31,16,10,2.60
2011,01,31,16,11,2.60
2011,01,31,16,12,2.60
2011,01,31,16,13,2.60
2011,01,31,16,14,2.50
2011,01,31,16,15,2.50
2011,01,31,16,16,2.50
2011,01,31,16,17,2.50
2011,01,31,16,18,2.40
2011,01,31,16,19,2.40
2011,01,31,16,20,2.40
2011,01,31,16,21,2.40
2011,01,31,16,22,2.30
2011,01,31,16,23,2.30
2011,01,31,16,24,2.30
2011,01,31,16,25,2.30
2011,01,31,16,26,2.30
2011,01,31,16,27,2.30
2011,01,31,16,28,2.20
2011,01,31,16,29,2.20
2011,01,31,16,30,2.20
2011,01,31,16,31,2.20
2011,01,31,16,32,2.20
2011,01,31,16,33,2.20
2011,01,31,16,34,2.20
2011,01,31,16,35,2.10
2011,01,31,16,36,2.10
2011,01,31,16,37,2.00
2011,01,31,16,38,2.00
2011,01,31,16,39,2.00
2011,01,31,16,40,1.90
2011,01,31,16,41,1.90
2011,01,31,16,42,1.90
2011,01,31,16,43,1.80
2011,01,31,16,44,1.80
2011,01,31,16,45,1.80
2011,01,31,16,46,1.70
2011,01,31,16,47,1.70
2011,01,31,16,48,1.70
2011,01,31,16,49,1.60
2011,01,31,16,50,1.60
2011,01,31,16,51,1.60
2011,01,31,16,52,1.60
2011,01,31,16,53,1.60
2011,01,31,16,54,1.50
2011,01,31,16,55,1.50
2011,01,31,16,56,1.50
2011,01,31,16,57,1.50
2011,01,31,16,58,1.40
2011,01,31,16,59,1.40
2011,01,31,17,00,1.30
2011,01,31,17,01,1.30
2011,01,31,17,02,1.30
2011,01,31,17,03,1.30
2011,01,31,17,04,1.30
2011,01,31,17,05,1.30
2011,01,31,17,06,1.30
2011,01,31,17,07,1.30
2011,01,31,17,08,1.30
2011,01,31,17,09,1.30
2011,01,31,17,10,1.30
2011,01,31,17,11,1.30
2011,01,31,17,12,1.20
2011,01,31,17,13,1.20
2011,01,31,17,14,1.20
2011,01,31,17,15,1.20
2011,01,31,17,16,1.20
2011,01,31,17,17,1.10
2011,01,31,17,18,1.10
2011,01,31,17,19,1.10
2011,01,31,17,20,1.10
2011,01,31,17,21,1.00
2011,01,31,17,22,1.00
2011,01,31,17,23,1.00
2011,01,31,17,24,0.90
2011,01,31,17,25,0.90
2011,01,31,17,26,0.90
2011,01,31,17,27,0.90
2011,01,31,17,28,0.90
2011,01,31,17,29,0.80
2011,01,31,17,30,0.80
2011,01,31,17,31,0.80
2011,01,31,17,32,0.80
2011,01,31,17,33,0.80
2011,01,31,17,34,0.70
2011,01,31,17,35,0.70
2011,01,31,17,36,0.70
2011,01,31,17,37,0.70
2011,01,31,17,38,0.70
2011,01,31,17,39,0.70
2011,01,31,17,40,0.70
2011,01,31,17,41,0.60
2011,01,31,17,42,0.60
2011,01,31,17,43,0.60
2011,01,31,17,44,0.60
2011,01,31,17,45,0.60
2011,01,31,17,46,0.60
2011,01,31,17,47,0.60
2011,01,31,17,48,0.50
2011,01,31,17,49,0.50
2011,01,31,17,50,0.50
2011,01,31,17,51,0.50
2011,01,31,17,52,0.40
2011,01,31,17,53,0.40
2011,01,31,17,54,0.40
2011,01,31,17,55,0.40
2011,01,31,17,56,0.40
2011,01,31,17,57,0.40
2011,01,31,17,58,0.40
2011,01,31,17,59,0.30
2011,01,31,18,00,0.30
2011,01,31,18,01,0.30
2011,01,31,18,02,0.30
2011,01,31,18,03,0.30
2011,01,31,18,04,0.30
2011,01,31,18,05,0.30
2011,01,31,18,06,0.30
2011,01,31,18,07,0.30
2011,01,31,18,08,0.30
2011,01,31,18,09,0.30
2011,01,31,18,10,0.30
2011,01,31,18,11,0.30
2011,01,31,18,12,0.30
2011,01,31,18,13,0.30
2011,01,31,18,14,0.30
2011,01,31,18,15,0.20
2011,01,31,18,16,0.20
2011,01,31,18,17,0.20
2011,01,31,18,18,0.20
2011,01,31,18,19,0.20
2011,01,31,18,20,0.20
2011,01,31,18,21,0.20
2011,01,31,18,22,0.20
2011,01,31,18,23,0.20
2011,01,31,18,24,0.20
2011,01,31,18,25,0.20
2011,01,31,18,26,0.20
2011,01,31,18,27,0.20
2011,01,31,18,28,0.20
2011,01,31,18,29,0.20
2011,01,31,18,30,0.20
2011,01,31,18,31,0.20
2011,01,31,18,32,0.20
2011,01,31,18,33,0.20
2011,01,31,18,34,0.20
2011,01,31,18,35,0.20
2011,01,31,18,36,0.20
2011,01,31,18,37,0.10
2011,01,31,18,38,0.10
2011,01,31,18,39,0.10
2011,01,31,18,40,0.10
2011,01,31,18,41,0.10
2011,01,31,18,42,0.10
2011,01,31,18,43,0.10
2011,01,31,18,44,0.10
2011,01,31,18,45,0.10
2011,01,31,18,46,0.10
2011,01,31,18,47,0.00
2011,01,31,18,48,0.00
2011,01,31,18,49,0.00
2011,01,31,18,50,0.00
2011,01,31,18,51,0.00
2011,01,31,18,52,-0.10
2011,01,31,18,53,-0.10
2011,01,31,18,54,-0.10
2011,01,31,18,55,-0.10
2011,01,31,18,56,-0.10
2011,01,31,18,57,-0.10
2011,01,31,18,58,-0.20
2011,01,31,18,59,-0.20
2011,01,31,19,00,-0.20
2011,01,31,19,01,-0.20
2011,01,31,19,02,-0.20
2011,01,31,19,03,-0.20
2011,01,31,19,04,-0.30
2011,01,31,19,05,-0.30
2011,01,31,19,06,-0.30
2011,01,31,19,07,-0.30
2011,01,31,19,08,-0.30
2011,01,31,19,09,-0.30
2011,01,31,19,10,-0.40
2011,01,31,19,11,-0.40
2011,01,31,19,12,-0.40
2011,01,31,19,13,-0.40
2011,01,31,19,14,-0.40
2011,01,31,19,15,-0.40
2011,01,31,19,16,-0.40
2011,01,31,19,17,-0.50
2011,01,31,19,18,-0.50
2011,01,31,19,19,-0.50
2011,01,31,19,20,-0.50
2011,01,31,19,21,-0.50
2011,01,31,19,22,-0.50
2011,01,31,19,23,-0.60
2011,01,31,19,24,-0.60
2011,01,31,19,25,-0.60
2011,01,31,19,26,-0.60
2011,01,31,19,27,-0.60
2011,01,31,19,28,-0.60
2011,01,31,19,29,-0.60
2011,01,31,19,30,-0.70
2011,01,31,19,31,-0.70
2011,01,31,19,32,-0.70
2011,01,31,19,33,-0.70
2011,01,31,19,34,-0.70
2011,01,31,19,35,-0.70
2011,01,31,19,36,-0.70
2011,01,31,19,37,-0.70
2011,01,31,19,38,-0.70
2011,01,31,19,39,-0.80
2011,01,31,19,40,-0.80
2011,01,31,19,41,-0.80
2011,01,31,19,42,-0.80
2011,01,31,19,43,-0.80
2011,01,31,19,44,-0.80
2011,01,31,19,45,-0.80
2011,01,31,19,46,-0.90
2011,01,31,19,47,-0.90
2011,01,31,19,48,-0.90
2011,01,31,19,49,-0.90
2011,01,31,19,50,-0.90
2011,01,31,19,51,-0.90
2011,01,31,19,52,-1.00
2011,01,31,19,53,-1.00
2011,01,31,19,54,-1.00
2011,01,31,19,55,-1.00
2011,01,31,19,56,-1.00
2011,01,31,19,57,-1.10
2011,01,31,19,58,-1.10
2011,01,31,19,59,-1.10
2011,01,31,20,00,-1.10
2011,01,31,20,01,-1.10
2011,01,31,20,02,-1.10
2011,01,31,20,03,-1.20
2011,01,31,20,04,-1.20
2011,01,31,20,05,-1.20
2011,01,31,20,06,-1.20
2011,01,31,20,07,-1.20
2011,01,31,20,08,-1.20
2011,01,31,20,09,-1.30
2011,01,31,20,10,-1.30
2011,01,31,20,11,-1.30
2011,01,31,20,12,-1.30
2011,01,31,20,13,-1.30
2011,01,31,20,14,-1.30
2011,01,31,20,15,-1.30
2011,01,31,20,16,-1.30
2011,01,31,20,17,-1.30
2011,01,31,20,18,-1.30
2011,01,31,20,19,-1.30
2011,01,31,20,20,-1.30
2011,01,31,20,21,-1.30
2011,01,31,20,22,-1.30
2011,01,31,20,23,-1.30
2011,01,31,20,24,-1.30
2011,01,31,20,25,-1.30
2011,01,31,20,26,-1.30
2011,01,31,20,27,-1.40
2011,01,31,20,28,-1.40
2011,01,31,20,29,-1.40
2011,01,31,20,30,-1.40
2011,01,31,20,31,-1.40
2011,01,31,20,32,-1.40
2011,01,31,20,33,-1.40
2011,01,31,20,34,-1.40
2011,01,31,20,35,-1.50
2011,01,31,20,36,-1.50
2011,01,31,20,37,-1.50
2011,01,31,20,38,-1.50
2011,01,31,20,39,-1.50
2011,01,31,20,40,-1.50
2011,01,31,20,41,-1.50
2011,01,31,20,42,-1.50
2011,01,31,20,43,-1.50
2011,01,31,20,44,-1.50
2011,01,31,20,45,-1.50
2011,01,31,20,46,-1.50
2011,01,31,20,47,-1.50
2011,01,31,20,48,-1.60
2011,01,31,20,49,-1.60
2011,01,31,20,50,-1.60
2011,01,31,20,51,-1.60
2011,01,31,20,52,-1.60
2011,01,31,20,53,-1.60
2011,01,31,20,54,-1.60
2011,01,31,20,55,-1.60
2011,01,31,20,56,-1.60
2011,01,31,20,57,-1.60
2011,01,31,20,58,-1.60
2011,01,31,20,59,-1.60
2011,01,31,21,00,-1.60
2011,01,31,21,01,-1.60
2011,01,31,21,02,-1.60
2011,01,31,21,03,-1.60
2011,01,31,21,04,-1.50
2011,01,31,21,05,-1.50
2011,01,31,21,06,-1.50
2011,01,31,21,07,-1.50
2011,01,31,21,08,-1.50
2011,01,31,21,09,-1.50
2011,01,31,21,10,-1.50
2011,01,31,21,11,-1.50
2011,01,31,21,12,-1.50
2011,01,31,21,13,-1.60
2011,01,31,21,14,-1.60
2011,01,31,21,15,-1.60
2011,01,31,21,16,-1.60
2011,01,31,21,17,-1.60
2011,01,31,21,18,-1.60
2011,01,31,21,19,-1.60
2011,01,31,21,20,-1.60
2011,01,31,21,21,-1.60
2011,01,31,21,22,-1.60
2011,01,31,21,23,-1.70
2011,01,31,21,24,-1.70
2011,01,31,21,25,-1.70
2011,01,31,21,26,-1.70
2011,01,31,21,27,-1.70
2011,01,31,21,28,-1.70
2011,01,31,21,29,-1.80
2011,01,31,21,30,-1.80
2011,01,31,21,31,-1.80
2011,01,31,21,32,-1.80
2011,01,31,21,33,-1.80
2011,01,31,21,34,-1.80
2011,01,31,21,35,-1.80
2011,01,31,21,36,-1.80
2011,01,31,21,37,-1.80
2011,01,31,21,38,-1.80
2011,01,31,21,39,-1.80
2011,01,31,21,40,-1.80
2011,01,31,21,41,-1.80
2011,01,31,21,42,-1.80
2011,01,31,21,43,-1.80
2011,01,31,21,44,-1.80
2011,01,31,21,45,-1.80
2011,01,31,21,46,-1.80
2011,01,31,21,47,-1.80
2011,01,31,21,48,-1.80
2011,01,31,21,49,-1.80
2011,01,31,21,50,-1.80
2011,01,31,21,51,-1.80
2011,01,31,21,52,-1.80
2011,01,31,21,53,-1.80
2011,01,31,21,54,-1.80
2011,01,31,21,55,-1.80
2011,01,31,21,56,-1.80
2011,01,31,21,57,-1.80
2011,01,31,21,58,-1.80
2011,01,31,21,59,-1.90
2011,01,31,22,00,-1.90
2011,01,31,22,01,-1.90
2011,01,31,22,02,-1.90
2011,01,31,22,03,-1.90
2011,01,31,22,04,-1.90
2011,01,31,22,05,-1.90
2011,01,31,22,06,-1.90
2011,01,31,22,07,-1.90
2011,01,31,22,08,-1.90
2011,01,31,22,09,-1.90
2011,01,31,22,10,-1.90
2011,01,31,22,11,-2.00
2011,01,31,22,12,-2.00
2011,01,31,22,13,-2.00
2011,01,31,22,14,-2.00
2011,01,31,22,15,-2.00
2011,01,31,22,16,-2.00
2011,01,31,22,17,-2.00
2011,01,31,22,18,-2.00
2011,01,31,22,19,-2.10
2011,01,31,22,20,-2.10
2011,01,31,22,21,-2.10
2011,01,31,22,22,-2.10